Regional Weather Roundup
Issued by NWS

Home | Current Version | Previous Version | Graphics & Text | Print | Product List | Glossary On
Versions: 1 2 3 4 5 6 7 8 9 10 11 12 13 14 15 16 17 18 19 20 21 22 23 24 25 26 27 28 29 30 31 32 33 34 35 36 37 38 39 40 41 42 43 44 45 46 47 48 49 50
000
ASUS45 KPSR 210510
RWRAZ

ARIZONA REGIONAL HOURLY WEATHER ROUNDUP
NATIONAL WEATHER SERVICE PHOENIX AZ
1000 PM MST MON APR 20 2015

NOTE: FAIR INDICATES FEW OR NO CLOUDS BELOW 12,000 FEET WITH NO
SIGNIFICANT WEATHER AND/OR OBSTRUCTIONS TO VISIBILITY.

AZZ001>003-036-210600-
NORTHWEST ARIZONA

CITY           SKY/WX    TMP DP  RH WIND       PRES   REMARKS
BULLHEAD CITY  CLEAR     81  16   9 SE8       29.71S
KINGMAN        CLEAR     64  15  15 S12       29.86R
$$

AZZ004>008-015-016-018-210600-
NORTH CENTRAL ARIZONA

CITY           SKY/WX    TMP DP  RH WIND       PRES   REMARKS
GRAND CANYON   PTCLDY    35  15  44 CALM      30.01S
WILLIAMS       MOCLDY    43  19  39 MISG      30.09S
PRESCOTT       CLEAR     58  16  19 S10       29.95R
FLAGSTAFF      PTCLDY    38  20  48 CALM      30.05S
PAYSON         CLEAR     59  16  18 CALM      29.98S
PAGE           CLEAR     68  16  13 SW6       29.85R
$$

AZZ009>014-017-210600-
NORTHEAST ARIZONA

CITY           SKY/WX    TMP DP  RH WIND       PRES   REMARKS
WINSLOW        PTCLDY    57  22  25 SW8       29.94R
SAINT JOHNS    CLOUDY    60  20  21 N3        29.98R
WINDOW ROCK    PTCLDY    50  18  28 VRB3      30.02R
SHOW LOW       CLEAR     45  16  31 S6        30.04S
$$

AZZ023-210600-
GREATER PHOENIX AREA

CITY           SKY/WX    TMP DP  RH WIND       PRES   REMARKS
PHOENIX        CLEAR     80  24  12 W9        29.73R
BUCKEYE        CLEAR     73  25  16 SW7       29.77R
LUKE AFB       CLEAR     77  29  17 SW10      29.74R
DEER VALLEY    CLEAR     76  21  12 SW8       29.76R
SCOTTSDALE     CLEAR     79  23  12 W8        29.77R
MESA-GATEWAY   CLEAR     75  28  17 SW6       29.77R
$$

AZZ027-028-210600-
SOUTHWEST MARICOPA COUNTY AND PINAL COUNTY

CITY           SKY/WX    TMP DP  RH WIND       PRES   REMARKS
CASA GRANDE    CLEAR     75  25  15 W10G16    29.78R
GILA BEND      CLEAR     76  25  14 SW8       29.76R
$$

AZZ503-504-507>509-210600-
SOUTHEAST ARIZONA

CITY           SKY/WX    TMP DP  RH WIND       PRES   REMARKS
TUCSON         CLEAR     72  25  17 SW6       29.89R
DAVIS-MONTHAN  CLEAR     72  26  18 SW3       29.88R
NOGALES        CLEAR     59  26  28 NE3       29.97R
SIERRA VISTA   CLEAR     66  11  12 SW20G26   29.95S
DOUGLAS        CLEAR     58  21  24 SE6       29.96R
SAFFORD        PTCLDY    68  17  14 NW9       29.82R
$$

AZZ020-021-025-026-031-210600-
SOUTHWEST ARIZONA

CITY           SKY/WX    TMP DP  RH WIND       PRES   REMARKS
YUMA           CLEAR     71  33  24 S6        29.74R
$$

CAZ031-033-041-043-047-048-061-210600-
SOUTHERN CALIFORNIA

CITY           SKY/WX    TMP DP  RH WIND       PRES   REMARKS
DOWNTOWN L.A.  CLEAR     58  52  80 CALM      29.89S
L.A. AIRPORT   PTCLDY    57  52  83 SW5       29.90S
SAN DIEGO      MOCLDY    62  48  60 W5        29.94R
BURBANK        CLEAR     57  50  77 S6        29.88R
ONTARIO        CLEAR     57  48  72 W10       29.89R
RIVERSIDE      CLEAR     58  48  69 W5        29.90R
PALM SPRINGS   CLEAR     75  45  34 NW15      29.75R
EL CENTRO NAS  PTCLDY    73  45  36 W14       29.73R
IMPERIAL       CLEAR     71  47  42 SW6       29.72R
BLYTHE         CLEAR     77  22  13 S6        29.73R
NEEDLES        CLEAR     81  16   9 W12       29.72R
$$

NVZ020-UTZ003-210600-
SOUTHERN NEVADA-UTAH

CITY           SKY/WX    TMP DP  RH WIND       PRES   REMARKS
LAS VEGAS      PTCLDY    79  16   9 S14       29.72R
SALT LAKE CITY CLEAR     54  27  35 S7        29.88S
$$

NMZ009-TXZ055-210600-
NEW MEXICO-WEST TEXAS

CITY           SKY/WX    TMP DP  RH WIND       PRES   REMARKS
ALBUQUERQUE    MOCLDY    55  23  28 S7        29.97R
EL PASO        PTCLDY    68  24  19 S7        29.88S
$$


........................KEY........................
SKY/WX - SKY CONDITION/WEATHER
TMP    - TEMPERATURE IN FAHRENHEIT
DP     - DEW POINT IN FAHRENHEIT
RH     - RELATIVE HUMIDITY IN PERCENT
WIND   - DIRECTION AND SPEED IN MILES PER HOUR (MPH)
VRB    - VARIABLE WIND DIRECTION
PRES   - MEAN SEA LEVEL PRESSURE IN INCHES OF MERCURY
         F - FALLING PRESSURE   R - RISING PRESSURE
         S - STEADY PRESSURE
VSB    - VISIBILITY IN MILES
HX     - HEAT INDEX IN FAHRENHEIT
WCI    - WIND CHILL INDEX IN FAHRENHEIT
TC     - TEMPERATURE IN CELSIUS WHICH IS ALSO KNOWN AS
         TEMPERATURE IN CENTIGRADE
AFB    - AIR FORCE BASE
         LUKE AFB IS LUKE AIR FORCE BASE
         DAVIS-MONTHAN IS DAVIS-MONTHAN AIR FORCE BASE
NAS    - NAVAL AIR STATION
         EL CENTRO NAS IS EL CENTRO NAVAL AIR STATION
N/A    - NOT AVAILABLE



USA.gov is the U.S. government's official web portal to all federal, state and local government web resources and services.